Wind_Speed
27 28 29 29 28 26 27 27 29 31 31 31 29 27 25 24 22 22 23 23 22 20 20 18 18 17 18 17 16 16 15 15 14 14 13 14 13 13 12 12 12 11 11 11 10 10 10 9 9 8 7 7 6 7 8 8 8 8 9 10 10 10 10 9 8 8 8 8 7 8 8 8 7 8 8 8 8 8 8 8 9 8 8 8 8
28 28 28 29 26 25 26 28 30 31 31 30 28 26 24 23 22 23 23 22 21 19 19 17 17 18 18 17 16 15 14 14 13 13 13 13 13 13 12 12 12 12 11 10 10 9 9 9 8 7 7 6 6 7 8 8 7 7 7 8 9 9 9 9 9 8 7 8 8 8 9 8 8 8 8 8 8 8 9 9 9 9 8 9 9
28 28 28 28 26 24 26 28 30 31 30 29 27 25 24 22 23 24 23 22 20 19 18 17 17 18 18 16 16 14 14 13 13 13 13 12 12 12 12 12 12 11 11 10 10 9 9 8 7 7 7 6 6 7 7 8 7 7 7 7 7 8 8 8 9 8 7 7 8 9 9 9 9 8 8 9 9 9 9 9 10 10 9 10 10
29 28 27 26 25 24 26 28 29 30 30 28 26 24 24 23 24 24 23 21 20 19 18 17 17 18 17 16 15 14 13 13 13 13 12 12 11 11 11 12 11 11 10 10 10 9 9 8 7 7 6 6 6 7 7 7 7 7 7 7 7 7 7 7 8 8 7 7 7 8 9 9 9 9 9 9 9 9 9 9 10 11 10 10 10
30 29 27 25 25 24 26 27 28 29 29 27 25 24 24 24 25 24 22 21 19 19 18 17 17 17 16 15 15 14 14 13 13 13 12 11 11 11 11 11 10 10 10 10 9 9 9 9 8 7 7 7 6 6 6 6 7 7 7 7 7 6 7 7 7 6 6 7 7 7 8 9 9 9 9 9 9 9 10 10 11 11 11 10 10
30 29 27 26 24 24 25 26 27 27 25 25 25 24 25 26 25 23 22 20 19 19 18 18 17 16 15 15 14 14 14 14 14 13 12 11 11 11 11 11 10 10 10 10 9 9 9 9 8 8 8 7 7 6 6 6 6 7 7 7 7 6 6 6 6 6 6 7 7 7 7 8 9 9 9 9 9 10 10 11 11 11 11 11 10
30 29 26 26 25 24 25 26 26 25 24 24 25 25 26 26 24 23 21 20 20 19 19 18 17 16 15 14 14 14 15 15 14 13 13 12 12 11 11 10 10 10 10 10 10 9 9 9 9 8 8 8 7 7 7 7 6 6 6 6 7 6 6 6 6 6 7 7 7 8 8 8 9 9 9 9 9 10 10 11 11 11 11 11 11
30 28 26 26 26 26 25 25 26 24 24 24 25 25 27 26 24 22 21 21 20 19 18 17 16 15 14 14 14 14 15 14 14 13 13 12 12 11 11 10 10 9 9 10 9 9 9 9 8 8 8 8 8 7 7 7 7 6 6 5 6 6 7 6 6 6 7 7 7 8 8 8 8 9 9 9 10 10 10 10 10 10 11 11 11
30 27 27 26 25 26 26 26 25 25 24 24 25 27 27 25 23 22 21 20 19 18 17 16 15 14 14 15 14 14 14 14 14 13 13 12 11 11 11 10 10 9 9 9 9 8 8 8 8 8 9 8 8 8 8 8 7 7 7 6 5 7 7 7 6 6 6 7 7 7 8 8 8 8 9 9 10 11 10 10 10 9 10 10 10
27 26 27 26 25 25 26 25 25 25 24 24 26 28 27 25 23 22 20 19 18 17 15 15 14 14 14 15 14 14 14 14 13 13 12 11 11 10 10 10 9 9 9 9 8 8 7 7 8 8 9 9 8 8 8 8 8 7 7 6 6 7 7 7 6 6 6 6 7 7 6 7 8 8 9 8 9 10 10 10 9 9 9 9 10
26 25 26 25 25 24 25 25 24 25 24 25 27 28 26 24 23 21 20 19 17 15 14 14 14 14 14 14 14 13 13 13 13 12 12 11 10 9 9 9 8 8 8 8 8 8 7 7 7 8 9 9 9 8 8 8 8 7 6 6 6 6 7 7 6 6 5 6 6 6 5 6 7 7 8 8 9 9 9 9 9 9 9 8 9
27 26 25 25 24 24 24 24 24 24 25 27 27 27 25 23 22 20 19 18 16 14 13 13 13 13 13 13 13 12 13 12 12 12 11 10 10 9 9 8 8 8 7 7 7 7 7 7 8 8 9 9 9 8 8 8 8 8 6 5 5 6 6 7 6 5 6 6 5 6 5 4 6 7 8 7 8 8 8 8 8 8 8 8 8
28 27 25 25 25 24 24 23 24 25 26 27 27 26 24 23 21 20 18 17 15 14 13 12 12 12 12 12 12 12 12 12 11 11 11 10 9 9 9 8 7 7 7 6 6 6 7 8 9 9 9 9 9 8 8 8 8 8 7 6 5 5 5 6 5 5 5 5 5 5 5 4 4 6 7 7 7 8 7 7 8 8 7 8 7
28 27 26 27 26 24 24 23 24 25 26 26 26 25 24 22 21 19 17 16 14 13 12 11 11 11 11 11 11 11 11 11 11 10 10 10 10 9 9 7 6 6 6 6 7 7 8 9 10 10 9 9 9 9 8 8 8 8 7 6 5 5 4 5 5 5 5 5 5 5 5 5 4 4 6 6 6 7 6 6 7 7 7 7 7
28 28 26 26 26 25 25 24 25 25 26 25 25 24 23 22 20 18 17 15 14 12 10 9 10 10 10 10 10 10 9 10 10 10 10 10 10 10 9 7 5 5 6 7 8 9 10 10 11 11 11 11 10 9 8 8 8 7 7 6 6 5 4 4 4 4 4 4 4 4 5 5 4 4 5 6 5 5 5 5 6 6 6 6 6
28 28 27 26 25 25 25 25 25 25 25 25 24 23 22 21 19 18 16 15 13 11 9 8 9 9 9 9 9 9 8 9 9 9 10 10 9 10 9 6 5 6 7 8 9 10 11 12 12 12 13 12 11 10 8 8 8 7 6 6 6 5 4 4 4 4 4 4 4 4 5 4 4 5 5 6 5 5 5 4 5 5 5 6 6
27 28 27 26 25 25 26 26 25 24 24 23 23 22 21 20 19 17 16 14 12 10 8 8 9 9 8 8 8 8 8 8 8 9 9 9 9 9 8 6 6 7 8 9 10 11 12 12 12 12 12 11 11 10 8 8 8 7 7 6 7 6 5 4 4 3 3 4 4 3 4 4 4 4 5 5 4 4 4 4 4 5 5 5 5
27 27 27 26 26 26 26 26 25 24 23 23 22 21 21 19 18 17 15 13 11 8 7 8 9 8 8 7 8 8 7 7 7 8 9 8 8 8 7 6 7 8 9 10 11 11 11 11 10 10 10 9 9 9 9 9 8 8 7 6 6 6 6 5 4 4 3 3 4 4 3 4 4 4 5 5 4 4 4 3 4 5 4 4 5
27 27 27 27 26 26 26 26 26 25 24 23 22 21 20 19 18 17 15 12 10 8 7 8 9 8 7 7 7 7 7 6 6 7 8 7 7 7 6 7 7 8 8 9 10 10 9 8 8 8 8 8 8 8 9 9 9 8 7 6 5 5 6 5 5 5 4 3 3 4 3 3 3 4 5 5 4 4 4 3 3 4 4 4 4
27 27 27 27 26 26 26 26 26 25 25 24 22 21 20 19 18 17 15 12 10 7 7 8 8 8 7 7 8 8 7 6 6 6 7 6 7 6 6 6 7 7 7 8 9 8 7 7 7 7 7 7 8 8 8 9 8 7 7 6 6 6 5 5 4 5 5 3 2 3 4 3 3 4 5 5 4 4 3 3 3 4 3 3 3
28 28 27 27 27 26 26 25 26 26 26 24 23 22 20 19 18 17 15 12 10 8 8 8 8 7 7 8 8 8 7 6 6 6 6 5 5 6 6 6 6 6 6 7 7 6 6 5 6 6 6 6 7 8 8 8 7 7 6 5 6 6 5 4 3 4 5 4 2 2 3 4 3 3 4 5 4 4 4 3 3 4 4 4 3
29 29 28 28 27 26 27 26 26 25 25 24 23 22 21 20 18 17 15 13 11 9 9 8 8 7 7 8 8 8 7 7 6 6 5 5 5 5 5 5 5 6 6 6 5 4 4 4 4 5 5 5 6 7 8 8 7 6 5 4 5 5 5 4 4 3 4 4 3 2 2 3 3 3 4 5 5 4 4 3 3 3 4 4 4
31 30 30 29 28 27 27 27 26 25 25 24 23 23 21 21 19 17 16 14 12 11 10 9 8 7 7 8 9 8 8 7 7 6 5 5 5 4 4 5 5 6 6 5 4 3 2 2 3 3 4 5 5 7 8 9 8 7 6 5 6 6 5 4 4 4 3 3 3 2 2 2 3 4 4 5 5 5 4 3 3 3 3 3 3
33 32 30 29 29 28 27 27 27 26 25 24 23 23 22 21 19 18 16 15 13 12 11 10 9 8 8 8 9 8 8 7 7 6 6 5 5 4 4 4 4 4 5 4 3 3 2 2 2 3 4 5 6 7 8 9 8 7 6 7 7 7 6 5 5 4 3 2 2 2 1 2 2 4 4 5 5 5 4 3 3 3 4 3 3
32 31 30 31 30 29 28 28 27 26 25 24 23 23 23 21 19 18 17 15 14 13 12 11 10 9 9 8 9 8 8 7 6 6 6 6 5 4 4 3 3 3 3 3 2 1 1 1 1 2 3 4 6 7 7 8 7 6 6 7 7 7 7 6 6 5 4 3 1 1 1 1 2 3 4 4 4 5 5 4 4 4 4 4 4
30 30 30 32 32 30 29 29 27 26 25 23 23 22 22 22 20 18 17 16 15 14 12 12 11 10 10 9 9 9 8 7 6 6 6 6 6 5 4 3 3 3 2 2 1 0 1 1 1 1 2 3 5 6 6 7 5 4 5 6 6 6 6 6 5 6 5 4 2 1 1 1 2 2 3 4 5 5 5 5 5 5 4 4 5
30 29 27 30 33 31 29 29 28 27 26 23 23 23 22 22 20 19 18 17 16 14 12 12 11 11 10 10 10 9 8 7 6 6 6 7 6 5 4 3 3 3 2 1 1 0 1 1 2 2 3 3 5 5 5 6 3 2 3 5 5 5 5 5 5 6 6 5 4 1 2 2 2 3 4 4 5 6 5 5 5 5 5 5 5
29 28 28 32 35 33 31 32 30 27 26 25 24 23 23 22 21 19 19 18 16 14 13 12 12 11 10 10 11 10 9 8 7 6 7 7 5 5 4 3 3 3 2 2 1 0 1 1 1 2 3 3 3 4 4 6 2 0 2 3 4 4 4 5 5 5 4 5 5 3 2 2 2 3 4 4 6 6 6 6 6 6 6 6 6
29 29 30 34 37 35 33 33 32 29 27 26 25 24 24 23 22 20 19 18 16 15 14 13 12 12 11 11 11 10 10 8 7 7 7 7 5 5 4 3 2 2 1 1 0 0 1 1 1 2 2 2 2 4 5 5 3 1 2 3 4 4 4 6 6 4 3 3 4 4 2 2 2 2 3 5 6 6 6 6 7 7 6 6 7
31 31 31 35 37 35 34 33 32 30 29 28 27 26 25 23 22 21 19 17 17 15 14 14 14 13 12 12 12 11 10 9 8 8 7 7 6 5 4 3 2 2 1 1 0 1 1 2 3 3 3 3 3 4 5 5 4 3 3 3 3 4 4 5 6 5 3 3 3 3 2 2 1 1 2 4 6 6 6 7 7 7 7 7 7
33 34 35 38 37 35 34 33 32 31 30 29 28 27 26 24 23 21 19 18 17 16 15 15 15 14 13 13 12 11 10 9 9 8 7 7 6 6 4 3 1 1 2 2 2 2 3 3 4 4 4 4 5 5 5 5 4 4 4 3 3 4 5 5 6 5 3 2 3 3 2 2 2 1 0 3 6 7 7 7 8 7 8 7 7
36 37 37 38 38 36 34 33 32 31 31 30 29 27 26 25 23 21 20 18 17 17 16 16 15 14 14 13 12 12 11 10 9 9 8 7 6 6 5 3 1 1 2 2 3 4 4 3 4 4 4 5 5 5 6 6 6 5 4 3 3 3 4 5 5 4 3 2 3 4 3 3 3 3 2 0 3 7 7 7 7 7 7 7 7
39 38 36 38 38 36 35 34 33 32 31 30 29 27 26 25 23 22 20 19 18 17 17 16 15 14 14 14 12 12 11 10 9 9 9 7 7 6 5 3 2 2 2 3 3 4 4 4 4 4 5 5 5 5 6 6 7 5 4 4 4 3 4 5 4 4 4 3 3 5 5 4 5 5 5 4 2 4 6 6 6 6 7 7 7
40 38 37 38 37 36 35 34 33 32 30 29 28 27 26 25 23 22 20 19 19 18 17 16 15 15 14 14 13 12 12 11 10 10 9 8 7 6 4 2 2 3 3 3 3 4 5 5 5 5 5 5 5 5 5 6 6 4 3 4 3 2 2 3 3 3 4 4 3 3 4 5 5 4 4 4 3 3 3 4 5 6 7 7 7
39 38 38 37 36 36 35 34 33 32 31 29 29 27 26 25 23 22 21 19 19 18 17 16 16 16 15 15 14 13 12 12 11 11 10 9 8 7 4 3 3 4 4 4 4 4 5 5 4 5 5 5 6 6 5 5 5 4 3 2 2 2 1 2 3 4 4 3 4 4 5 5 5 5 4 4 3 4 2 1 3 5 6 6 7
38 37 36 35 35 35 34 34 33 32 31 30 29 28 26 25 23 22 20 19 19 19 18 17 17 17 16 15 15 13 13 12 12 12 11 10 9 7 5 4 4 4 5 5 5 5 4 4 4 5 5 6 6 5 5 6 5 5 4 2 1 3 1 1 2 4 3 3 5 6 5 3 3 4 4 4 4 4 3 1 1 2 4 5 7
37 36 35 35 35 34 34 33 32 31 30 30 29 28 26 25 23 22 21 20 19 19 18 18 18 18 17 17 16 14 14 13 13 12 11 10 9 6 5 5 5 5 5 6 6 6 5 5 5 5 6 7 7 4 4 6 6 6 6 3 2 3 3 2 2 3 3 4 6 8 7 5 2 1 3 4 4 5 3 2 0 1 1 2 4
37 36 36 35 34 34 34 33 32 31 30 30 29 28 26 25 24 22 21 20 20 20 19 20 19 19 18 18 17 16 15 14 13 12 11 10 8 7 6 7 7 7 7 7 7 7 7 7 6 6 7 8 8 5 5 7 7 7 6 5 4 3 4 2 2 3 2 2 5 8 8 7 5 3 2 3 4 4 4 2 1 1 2 3 3
38 37 37 36 35 34 34 33 33 32 31 30 29 28 26 26 25 23 22 22 22 21 21 21 21 20 20 18 18 17 16 15 13 13 11 10 9 8 7 8 9 9 8 8 7 7 7 7 7 7 7 9 9 8 7 8 8 7 6 5 5 4 4 3 3 3 2 2 3 6 7 7 6 5 4 4 3 3 3 2 1 1 3 3 3
38 38 38 37 37 36 35 35 34 33 32 31 30 29 28 28 26 25 25 24 24 23 23 22 22 21 21 19 18 18 17 16 15 14 12 11 9 9 8 9 9 10 9 8 7 6 7 8 8 8 8 9 10 9 8 8 8 7 5 5 5 4 4 4 4 4 2 1 2 4 5 6 7 6 6 5 4 3 3 2 2 2 2 2 2
39 39 39 38 38 37 36 36 35 34 34 33 32 32 31 30 29 28 27 26 25 24 24 23 22 22 21 20 19 19 18 17 16 15 13 11 10 9 9 9 10 10 10 8 7 7 8 9 9 8 8 9 10 8 8 7 5 3 5 6 5 5 5 4 4 4 2 3 3 3 3 5 7 8 7 6 5 5 4 4 3 3 3 3 3
41 40 39 39 38 38 37 37 36 36 35 34 33 33 32 31 30 29 27 26 25 25 24 23 23 22 21 20 20 19 19 18 17 16 14 12 11 10 10 10 10 10 9 9 8 8 8 9 10 9 8 8 9 8 7 5 0 3 6 6 5 5 5 4 4 2 4 5 4 3 2 4 7 8 8 9 9 9 8 7 5 4 4 3 3
41 40 39 39 39 39 38 37 36 36 35 35 34 34 32 31 30 28 26 25 24 24 24 23 22 22 21 21 20 20 19 19 18 17 15 13 11 11 10 10 9 9 9 9 8 9 9 10 10 9 8 8 8 7 6 3 3 7 8 6 5 5 4 4 3 3 6 5 5 4 2 3 5 7 8 10 10 10 10 9 8 7 5 5 3
41 41 41 40 40 39 38 38 36 36 35 35 34 33 32 31 30 28 26 25 24 23 23 24 23 23 22 22 21 20 20 20 19 18 17 14 12 12 11 10 9 9 9 9 9 9 9 10 10 9 8 7 7 6 6 3 4 8 8 6 6 5 4 3 3 5 5 5 6 5 3 2 3 5 6 7 8 8 9 8 8 7 7 6 5
43 43 43 41 41 39 38 38 37 36 36 35 34 34 33 32 31 30 28 27 26 26 26 26 25 25 24 23 22 21 21 21 20 19 18 16 15 14 13 12 11 10 9 9 9 9 9 10 10 10 9 7 6 6 6 5 5 7 9 8 6 5 4 4 4 6 6 6 7 6 4 3 3 3 4 4 5 6 7 7 7 7 7 7 7
45 44 43 42 41 40 39 38 38 37 37 35 35 34 33 32 32 32 31 31 30 30 29 28 27 25 24 23 22 22 22 22 21 20 19 18 17 16 15 14 12 11 10 10 10 10 10 10 10 10 9 8 7 7 7 6 7 7 9 9 7 5 4 5 5 5 6 7 7 7 6 5 4 3 3 2 3 4 5 5 6 6 6 7 7
46 45 44 43 42 41 40 39 39 39 38 37 36 35 34 34 34 33 33 32 31 30 29 28 26 25 24 24 23 23 23 22 21 20 19 18 18 18 17 16 14 12 11 11 12 12 11 11 11 11 10 10 8 7 7 8 8 8 8 9 8 7 5 5 6 5 6 7 7 8 8 7 6 5 4 3 1 1 2 3 4 4 4 5 6
47 46 45 44 43 42 40 39 39 39 39 38 37 36 35 35 35 34 34 33 32 30 28 27 27 25 24 24 24 24 24 23 22 21 19 18 19 19 18 17 16 14 12 12 12 12 12 12 12 12 12 11 10 7 7 9 9 10 9 9 9 9 7 6 7 6 6 6 7 9 10 9 8 7 6 5 3 2 1 1 2 3 3 3 4
47 47 46 45 44 43 42 41 40 39 39 39 38 37 36 35 35 36 36 35 34 32 29 28 28 27 26 25 25 25 24 23 23 22 20 19 19 19 19 18 17 15 14 13 12 12 12 12 12 12 12 11 10 8 8 9 10 11 11 10 9 9 9 9 9 8 8 7 7 8 10 11 10 10 8 7 6 4 3 2 1 1 1 2 3
48 48 47 47 46 44 44 43 42 41 40 40 39 38 37 37 37 37 37 36 35 33 32 31 30 29 28 27 26 25 24 23 23 23 21 20 20 20 19 19 17 16 15 14 13 13 13 12 12 12 12 11 10 9 9 9 11 12 12 11 10 9 9 9 9 9 10 10 8 7 8 9 10 10 9 9 8 7 6 5 3 2 1 1 2
48 49 49 49 48 47 46 45 43 42 42 41 40 39 38 38 38 38 37 37 36 35 34 33 33 32 30 29 27 26 25 24 23 23 22 21 21 21 20 19 18 17 16 15 14 13 13 13 12 12 12 11 11 11 10 10 11 13 13 13 11 10 9 8 8 8 8 8 9 8 7 8 9 9 9 10 10 9 8 7 6 4 4 3 3
Wind_Direction
132 135 137 141 141 139 136 136 136 137 138 138 138 136 134 134 135 134 132 131 129 126 124 121 118 117 117 117 116 115 112 108 106 104 103 101 100 100 99 98 99 102 107 111 116 118 118 118 115 114 110 104 97 90 92 97 97 88 77 71 69 69 71 76 90 99 98 100 104 109 112 113 111 107 106 100 95 94 94 96 100 99 102 109 113
135 136 137 141 140 138 137 136 136 138 140 140 138 136 137 137 137 134 133 131 128 125 122 122 120 120 119 118 115 112 110 109 108 107 105 103 104 104 102 99 97 100 102 106 110 114 116 117 117 117 114 107 99 94 91 92 97 92 80 73 72 73 76 79 89 97 95 96 97 103 110 111 108 105 102 99 98 99 99 103 106 103 108 112 112
137 137 138 141 138 137 137 138 139 141 142 141 139 139 141 140 139 136 134 130 127 125 123 124 122 122 121 117 112 111 112 112 112 111 109 107 108 107 106 103 101 101 101 103 105 107 111 115 116 116 114 107 99 94 92 89 91 91 84 78 78 80 83 85 89 97 98 94 96 103 111 110 104 101 101 101 102 103 104 107 108 108 112 113 113
139 138 139 141 138 138 139 140 141 144 143 142 142 144 143 141 141 138 134 129 127 126 126 127 125 123 120 115 112 113 114 115 116 115 114 112 112 109 106 105 104 102 101 102 102 102 102 105 108 108 106 101 94 89 89 87 84 85 83 81 85 83 84 90 91 97 101 101 99 100 105 105 103 103 103 103 103 105 107 108 107 107 108 109 113
141 139 140 142 141 141 143 145 143 144 146 144 146 146 144 143 143 138 134 130 128 129 129 128 125 122 119 117 114 115 116 116 116 114 115 115 113 110 106 105 105 102 100 99 99 98 97 98 98 97 95 90 86 83 87 90 85 82 80 78 82 83 81 90 94 94 97 102 104 102 105 107 107 107 106 105 106 108 110 109 106 105 103 106 112
144 141 141 143 144 146 146 150 147 144 147 147 148 148 146 146 143 139 134 131 131 131 129 126 122 122 121 120 116 113 112 111 111 112 113 113 113 110 108 106 105 104 100 98 96 94 94 95 95 94 93 89 85 84 89 95 94 87 82 76 77 80 76 84 95 95 92 94 102 110 114 114 113 112 110 109 107 109 113 111 107 105 103 104 108
146 142 142 145 147 150 149 153 152 148 148 149 150 149 148 147 144 140 136 134 135 132 126 123 121 123 124 122 114 107 107 108 109 110 109 108 108 108 108 108 107 105 102 100 96 93 93 93 95 96 96 94 91 91 93 99 101 96 91 82 76 75 70 75 89 96 94 95 102 112 116 117 118 117 116 113 108 106 108 111 111 109 106 105 104
149 144 142 145 147 150 151 154 156 155 152 151 151 150 150 148 145 142 140 139 136 130 124 122 121 121 121 118 109 104 105 107 108 107 105 104 105 106 106 106 107 106 104 102 96 92 90 90 94 96 96 94 92 93 96 100 101 100 98 91 83 81 78 77 81 90 94 97 106 114 119 122 125 124 119 116 113 107 104 106 110 112 110 107 105
150 146 142 143 146 149 151 155 158 159 155 152 152 152 152 150 148 146 143 140 134 128 125 122 120 117 117 114 106 102 103 104 105 103 100 101 103 107 106 104 105 105 104 99 95 91 88 88 91 93 91 88 85 86 91 96 99 101 101 99 91 84 84 82 78 83 88 93 101 113 125 130 130 127 119 119 118 110 105 104 106 111 114 111 107
149 147 144 144 148 149 152 156 158 159 158 154 154 154 153 153 150 148 144 138 132 129 127 123 118 115 114 112 106 101 100 101 101 99 96 95 97 102 105 104 102 102 100 97 95 90 88 86 85 89 87 83 79 78 81 86 93 96 95 94 88 80 84 89 83 80 84 89 95 104 120 127 125 122 119 120 116 108 108 106 106 108 111 115 113
150 148 147 148 151 151 153 156 158 160 158 155 155 156 156 155 152 150 145 137 134 131 128 123 118 115 113 111 107 100 98 98 98 97 95 93 92 94 97 100 102 102 101 100 97 91 89 87 84 87 88 84 79 77 76 79 85 88 86 83 82 80 84 92 87 78 82 88 92 98 106 120 127 127 121 118 112 108 111 110 110 108 108 114 113
153 151 151 152 154 153 154 156 158 159 158 156 157 158 159 158 156 153 146 139 137 133 129 123 119 115 112 110 106 99 95 95 95 94 94 95 94 92 89 89 98 104 105 103 99 96 94 93 90 90 90 87 83 82 80 81 82 85 85 81 83 84 88 91 89 79 80 90 94 97 101 116 127 125 122 119 115 112 112 111 110 108 108 108 107
156 154 155 156 156 155 156 157 158 158 158 159 160 162 163 162 161 157 149 145 141 135 131 124 120 116 112 110 106 101 96 93 91 90 91 93 95 95 91 90 97 103 105 106 105 102 99 96 94 93 92 90 88 87 86 85 82 85 86 86 90 91 96 96 94 86 81 91 97 101 107 109 111 118 125 122 117 114 111 113 112 109 109 108 105
159 157 158 159 159 158 159 159 159 160 161 162 164 166 167 167 165 160 154 151 146 140 134 125 121 117 114 110 107 104 99 94 88 88 89 92 95 93 90 89 97 107 112 112 108 104 101 99 98 96 93 90 88 86 86 86 84 86 87 88 96 98 103 102 101 99 90 90 96 104 108 110 114 124 126 117 113 113 110 115 116 112 110 108 105
162 161 161 161 161 161 161 162 162 163 165 167 168 171 171 171 167 163 158 155 151 145 138 130 124 120 117 111 108 106 102 97 90 88 87 89 93 93 91 88 92 102 109 107 105 105 103 102 98 93 87 84 82 81 81 84 86 86 84 82 87 97 102 100 101 107 106 95 94 104 105 111 121 117 114 113 114 110 109 118 122 116 109 105 104
166 165 164 164 164 165 165 165 166 167 169 171 172 175 175 173 170 164 161 159 156 151 143 134 127 123 121 113 110 108 106 102 95 92 87 85 87 89 92 96 102 101 103 104 106 107 105 101 94 86 80 77 76 75 75 76 79 76 75 75 78 87 96 98 95 101 111 104 95 100 107 113 119 117 119 118 120 119 115 122 127 122 112 104 99
170 169 169 168 168 169 169 169 171 171 172 174 175 177 177 175 172 168 165 164 163 158 150 140 132 127 124 119 115 113 110 108 102 98 92 86 87 90 93 101 110 103 104 107 109 109 104 98 90 82 75 71 70 68 64 62 63 64 64 67 76 83 83 87 88 92 106 112 105 100 113 123 125 128 131 126 128 130 123 125 132 131 118 104 95
175 175 175 173 172 173 173 173 173 174 175 177 178 179 179 177 176 174 172 170 171 166 157 148 138 132 129 124 124 123 119 118 109 100 96 91 90 96 104 111 112 106 108 110 110 107 101 95 88 81 72 65 62 59 53 47 48 51 52 56 70 84 82 76 78 82 91 110 113 110 123 138 140 141 139 136 138 132 127 131 134 136 126 106 93
180 180 181 178 176 177 177 177 176 177 178 179 181 182 181 181 182 181 179 177 178 173 166 156 145 140 137 134 137 137 131 129 118 104 101 98 95 98 110 119 119 116 117 116 111 108 102 95 90 81 70 60 52 52 48 43 46 42 39 45 56 73 78 76 73 69 71 90 113 119 131 149 147 150 149 144 148 140 131 133 132 136 130 115 99
184 184 184 182 181 181 180 181 179 180 181 181 183 184 185 186 188 188 185 185 185 181 176 165 154 150 149 149 150 146 138 136 126 112 106 103 102 101 108 117 125 126 126 124 118 115 111 102 94 80 66 53 42 43 44 42 45 42 38 43 48 52 62 71 74 67 60 64 105 123 131 146 153 155 158 155 155 150 140 139 137 138 137 129 113
186 186 186 185 185 184 184 184 182 182 183 184 186 187 188 190 194 194 191 192 191 187 184 175 164 162 164 162 158 152 144 141 135 123 113 108 111 107 106 111 125 131 130 128 123 119 115 102 89 76 63 50 36 31 35 39 37 40 44 45 43 40 40 48 59 63 51 47 75 121 129 139 156 164 169 167 162 161 155 154 151 149 153 150 131
186 187 188 188 188 186 186 186 184 185 185 185 188 189 190 191 195 197 196 198 196 191 188 184 176 173 176 170 164 157 149 147 142 133 129 125 119 111 106 109 125 137 136 133 130 115 97 88 81 70 58 47 36 22 20 31 31 34 43 45 44 33 26 31 28 39 44 38 51 88 127 140 158 168 179 176 170 174 168 162 169 165 163 160 149
186 187 189 189 188 187 187 187 187 187 188 188 190 191 193 194 196 197 199 200 198 193 193 190 184 182 182 175 168 162 155 155 152 145 142 136 122 113 111 112 127 141 145 142 139 119 76 58 62 59 47 32 23 15 11 18 21 23 29 33 35 29 23 28 22 24 37 38 46 62 106 145 163 170 183 186 176 176 174 175 182 180 175 169 166
187 187 190 190 189 188 188 189 189 189 191 191 191 193 195 196 199 200 200 201 198 195 196 194 190 191 188 179 172 167 162 162 161 152 147 143 132 130 128 117 127 148 153 153 149 128 79 35 32 33 30 16 3 2 4 7 9 17 29 36 32 27 23 27 27 21 18 18 37 60 90 146 177 181 185 188 183 180 179 185 188 188 188 181 184
187 188 190 191 191 190 190 190 190 191 193 194 193 195 196 198 200 202 201 200 198 195 198 197 194 196 192 183 176 172 169 169 166 159 156 152 144 142 144 133 138 159 166 173 174 143 81 22 8 12 13 3 348 346 353 356 1 23 45 48 38 30 21 21 29 29 17 5 3 76 104 159 198 199 195 189 188 191 190 192 188 191 197 187 187
188 190 191 191 191 190 191 191 191 194 195 195 195 197 199 200 201 203 200 198 198 197 199 199 197 198 194 186 182 179 175 177 172 166 161 154 149 148 152 148 142 155 168 180 187 165 33 5 335 324 336 336 333 332 335 341 352 36 55 52 42 34 21 9 12 19 21 17 348 227 168 211 216 217 216 199 192 192 199 203 193 189 195 199 197
189 191 190 191 191 190 192 191 191 195 197 196 197 199 201 202 202 203 200 198 200 200 201 200 200 200 194 187 186 185 182 183 181 175 164 155 155 154 154 150 141 145 152 147 158 246 315 301 296 294 305 314 325 327 322 329 341 62 51 46 42 35 24 6 352 359 11 21 7 283 221 255 249 232 225 212 204 194 197 206 204 201 197 201 206
191 192 192 192 192 192 193 194 194 195 196 197 199 200 202 202 202 204 202 201 202 203 203 200 202 202 195 192 191 189 188 188 188 182 169 163 163 163 163 159 150 143 140 115 105 195 244 246 270 292 307 310 320 325 317 321 317 135 19 27 39 42 40 23 1 352 359 15 7 333 263 257 261 246 234 225 220 203 198 206 207 211 207 205 205
193 192 193 194 194 195 196 196 197 197 196 198 199 200 202 203 203 205 206 206 206 206 205 202 204 202 197 196 195 194 192 191 189 183 174 173 175 166 163 156 145 131 137 132 110 223 251 264 287 304 317 309 303 314 316 318 299 270 339 1 25 31 36 27 8 348 335 338 344 336 302 261 266 262 247 237 232 216 206 211 211 215 212 210 209
194 194 194 195 196 197 197 197 198 199 199 200 201 201 202 204 204 206 207 208 209 207 207 206 206 203 199 200 198 198 197 194 192 186 178 181 183 172 165 150 120 92 69 355 320 285 280 281 294 308 325 324 305 308 312 306 283 281 323 337 4 12 11 14 3 348 325 309 325 323 293 274 291 293 272 247 241 228 218 218 216 222 220 214 217
195 196 197 197 197 199 198 198 199 200 201 202 204 205 206 207 206 206 208 209 209 209 208 208 208 203 201 202 202 202 201 198 197 194 186 188 193 191 189 176 139 66 31 8 347 320 301 293 299 309 322 330 321 312 307 291 267 277 307 314 341 2 2 357 351 346 333 330 338 315 276 270 289 299 285 230 236 234 228 227 218 222 230 226 225
196 198 197 198 198 199 199 199 200 201 202 204 206 207 208 208 208 208 210 209 210 210 210 210 209 204 202 205 205 205 205 204 204 203 199 200 208 210 214 211 216 303 346 348 338 331 320 310 308 311 319 328 326 312 300 279 256 268 291 298 307 333 357 351 343 346 345 349 338 321 298 277 298 317 338 9 244 245 238 237 230 225 232 236 234
198 199 198 199 199 199 199 200 201 202 203 205 207 208 208 209 209 210 211 211 212 212 212 212 209 206 206 207 208 209 209 210 210 211 211 216 219 218 219 225 246 278 309 322 328 330 326 322 312 310 316 318 318 306 292 273 257 262 279 290 290 306 354 352 344 348 342 345 338 327 316 296 307 325 346 22 13 277 252 244 245 239 235 236 237
199 199 200 200 200 199 200 201 203 204 205 206 208 209 209 209 209 211 212 212 214 215 213 213 210 208 209 210 212 212 212 215 216 218 223 228 227 224 221 234 277 282 298 311 311 312 313 313 308 308 314 316 315 306 290 275 265 260 272 291 279 276 345 348 344 341 332 344 355 327 304 287 293 307 327 357 24 3 285 251 246 243 239 235 235
201 200 201 201 201 201 202 203 204 205 206 207 208 209 209 210 210 211 213 213 215 217 215 213 212 211 212 213 213 213 213 215 219 223 229 235 236 236 234 243 278 289 298 305 301 302 304 304 307 309 314 317 316 310 295 281 271 261 265 302 263 231 308 349 350 342 337 0 15 348 308 277 268 287 315 328 353 25 27 281 244 242 242 239 236
202 202 202 202 203 204 204 205 206 206 206 207 208 209 210 211 212 214 214 215 217 218 216 215 214 214 214 216 215 216 217 218 221 226 231 237 240 240 240 245 265 285 294 298 292 287 286 289 307 317 320 320 315 313 300 286 271 251 241 279 233 213 272 336 328 345 6 23 22 19 0 316 264 273 310 325 333 358 24 29 258 246 251 246 244
203 204 203 203 204 205 207 208 208 208 208 209 209 210 211 212 214 216 217 218 219 220 218 217 216 216 216 218 218 219 221 222 224 228 231 234 235 237 240 247 257 273 283 289 286 276 271 277 296 316 324 322 318 317 302 292 284 259 246 255 206 214 282 295 294 349 18 22 29 47 52 44 42 317 322 329 329 335 342 331 276 245 286 274 263
205 205 206 206 206 207 209 209 210 210 210 211 211 212 213 215 217 218 220 220 221 221 220 219 218 218 219 220 221 222 224 225 226 227 229 231 235 238 244 251 255 264 274 282 283 273 269 275 288 307 318 321 321 319 301 295 295 283 266 247 213 250 292 261 272 342 350 6 48 64 64 62 62 50 20 355 335 329 325 306 272 263 296 305 293
207 207 208 209 209 210 211 211 212 212 213 214 214 215 216 218 219 220 221 220 221 221 220 219 219 220 221 222 224 225 225 226 226 228 230 233 239 245 249 256 257 262 268 276 281 273 271 276 280 295 309 319 322 315 300 294 293 292 280 240 220 263 275 231 278 332 316 322 67 71 56 59 58 49 38 21 6 352 347 337 318 299 296 294 291
210 210 210 210 211 212 212 213 213 213 214 215 216 217 218 219 219 219 220 219 220 220 219 220 221 222 223 223 225 226 227 227 227 230 232 235 240 247 253 255 257 260 264 272 278 272 269 269 268 281 301 316 320 312 300 298 297 287 262 228 216 238 239 232 290 326 296 246 102 74 49 50 49 39 24 12 14 14 13 21 25 17 354 340 325
213 212 212 212 212 213 214 214 214 215 216 216 217 218 218 218 218 218 219 219 219 219 219 220 222 223 224 224 225 226 227 227 229 232 235 237 241 247 251 253 255 259 264 270 271 266 261 262 265 277 299 316 319 310 301 306 309 270 221 208 208 218 229 245 293 310 230 180 138 88 45 41 43 38 31 30 37 43 49 53 44 35 28 28 32
214 213 213 213 213 214 215 215 215 216 217 217 218 219 219 218 218 218 218 219 220 220 220 222 223 225 225 226 226 226 228 228 231 234 235 238 242 247 249 251 256 261 266 270 269 266 261 262 270 280 299 315 315 305 300 311 330 174 175 179 193 213 230 256 292 265 181 168 148 122 61 38 44 44 52 59 58 59 60 61 58 50 42 36 32
216 215 213 213 214 214 215 216 216 216 217 218 218 219 220 220 220 220 220 221 223 223 224 225 226 228 228 228 227 227 228 230 234 236 237 238 242 246 247 250 257 263 270 272 270 268 264 265 273 281 296 309 310 300 294 291 168 167 168 170 179 203 232 257 268 190 172 173 164 146 109 69 56 54 65 68 62 59 58 58 58 55 50 43 38
218 216 214 213 213 214 214 214 215 216 218 218 219 220 221 221 222 223 223 225 227 228 229 229 229 230 230 229 229 229 231 233 236 238 239 239 239 243 246 250 258 266 270 271 270 268 265 266 271 277 290 302 301 294 283 255 186 172 177 183 184 201 225 233 215 187 183 191 184 168 148 134 92 75 74 66 59 54 53 58 60 57 55 51 47
218 217 215 214 213 213 214 214 214 215 217 218 219 220 220 221 222 223 224 226 227 229 229 230 229 229 230 229 229 231 233 234 236 239 241 240 238 240 245 252 258 266 268 269 270 269 265 265 270 274 284 292 285 278 272 244 205 188 190 190 186 204 217 209 206 202 203 206 200 188 175 170 143 112 94 66 58 53 48 53 57 57 57 56 53
218 217 216 215 214 214 214 214 215 215 216 218 219 219 220 220 220 221 222 222 224 226 227 228 229 228 229 230 230 231 234 236 237 239 241 242 239 239 244 251 256 262 267 269 269 268 266 268 272 274 279 285 276 265 262 243 219 207 205 201 198 202 204 206 212 214 218 221 220 215 203 194 187 166 146 110 64 56 51 48 49 50 58 61 58
218 216 217 216 215 215 215 215 215 216 217 218 219 219 219 220 221 221 223 223 225 227 229 230 231 231 231 232 232 233 235 237 238 240 242 243 241 240 243 249 254 258 264 269 269 268 267 267 271 273 275 278 272 258 252 242 226 218 218 218 220 221 216 214 215 219 232 234 232 230 224 214 209 205 191 182 176 76 69 59 48 45 61 74 72
219 218 218 217 216 216 216 216 217 218 218 219 219 219 219 220 221 223 225 226 228 230 232 233 234 234 234 233 233 234 235 237 240 242 244 245 243 241 242 247 252 254 260 266 270 268 264 265 268 271 275 276 272 261 249 242 230 225 228 228 234 238 237 236 231 230 239 245 242 237 233 230 227 228 222 214 219 227 192 103 68 46 60 85 95
221 221 219 218 217 217 217 218 219 220 220 221 221 220 221 221 223 224 226 228 229 231 232 234 236 237 236 235 234 234 236 238 241 244 245 246 245 242 241 245 249 253 258 262 267 268 263 264 268 271 274 274 270 263 256 249 236 230 236 238 242 245 242 246 249 247 248 250 251 244 239 238 236 238 237 236 244 250 241 217 159 87 87 104 118
223 223 222 222 221 220 220 221 221 221 222 223 223 222 222 223 224 225 226 228 229 230 231 233 235 237 237 236 235 235 236 238 241 244 244 246 245 242 241 243 247 250 254 257 261 264 262 264 268 268 269 270 268 263 260 256 242 236 241 245 247 248 246 249 253 257 258 258 260 256 247 242 243 249 248 246 251 252 247 240 231 214 209 200 164
225 225 226 225 225 224 223 223 223 223 225 225 225 224 223 224 224 225 226 228 230 230 231 233 234 235 236 236 235 234 236 238 241 242 242 242 242 241 241 243 246 248 251 253 255 258 260 261 264 263 262 265 266 262 257 255 248 243 244 250 252 249 246 249 254 259 257 254 259 260 256 252 256 264 261 251 248 249 251 251 247 240 243 247 234
Height
1546 1547 1548 1548 1550 1551 1552 1553 1554 1556 1557 1559 1560 1562 1564 1565 1567 1568 1569 1570 1570 1571 1572 1573 1574 1574 1575 1576 1577 1577 1577 1577 1577 1577 1577 1578 1578 1578 1579 1579 1579 1579 1580 1580 1580 1580 1580 1581 1581 1581 1581 1581 1581 1581 1581 1581 1581 1581 1581 1581 1581 1581 1580 1580 1580 1580 1580 1581 1581 1581 1582 1582 1582 1582 1583 1583 1583 1583 1583 1584 1584 1584 1584 1585 1585
1547 1549 1549 1550 1552 1552 1553 1554 1556 1558 1559 1560 1562 1564 1565 1567 1568 1569 1570 1571 1572 1572 1573 1574 1575 1576 1576 1577 1578 1578 1578 1578 1578 1578 1578 1579 1579 1579 1580 1580 1580 1580 1581 1581 1581 1581 1581 1582 1582 1582 1582 1582 1582 1582 1582 1582 1582 1582 1582 1582 1582 1582 1581 1581 1581 1581 1581 1582 1582 1582 1582 1583 1583 1583 1584 1584 1584 1584 1584 1585 1585 1585 1585 1585 1586
1548 1550 1551 1552 1553 1554 1556 1556 1558 1559 1561 1562 1563 1565 1567 1568 1569 1570 1571 1572 1573 1573 1574 1575 1576 1577 1578 1578 1578 1579 1579 1579 1579 1579 1579 1580 1580 1580 1581 1581 1581 1582 1582 1582 1582 1582 1582 1583 1583 1583 1583 1583 1583 1583 1583 1583 1583 1583 1583 1583 1583 1583 1582 1582 1582 1582 1582 1583 1583 1583 1583 1584 1584 1584 1585 1585 1585 1585 1585 1586 1586 1586 1586 1586 1586
1549 1550 1552 1553 1554 1556 1558 1559 1560 1561 1562 1563 1566 1567 1568 1569 1570 1571 1572 1573 1574 1575 1576 1577 1578 1578 1579 1579 1580 1580 1580 1580 1580 1580 1580 1581 1581 1581 1582 1582 1582 1583 1583 1583 1583 1583 1584 1584 1584 1584 1584 1584 1584 1584 1584 1584 1584 1584 1584 1584 1584 1584 1584 1583 1583 1583 1583 1583 1584 1584 1584 1585 1585 1585 1586 1586 1586 1586 1586 1587 1587 1587 1587 1587 1587
1549 1551 1552 1554 1556 1558 1559 1561 1562 1562 1563 1564 1567 1568 1569 1570 1572 1573 1573 1574 1575 1576 1577 1578 1579 1579 1580 1580 1581 1581 1581 1581 1581 1581 1582 1582 1582 1583 1583 1583 1583 1584 1584 1584 1584 1584 1584 1584 1584 1584 1585 1584 1585 1585 1585 1585 1585 1585 1585 1585 1585 1585 1585 1584 1584 1584 1584 1584 1585 1585 1585 1586 1586 1586 1587 1587 1587 1587 1587 1588 1588 1588 1588 1588 1588
1550 1552 1554 1555 1557 1559 1560 1562 1563 1564 1565 1566 1568 1569 1570 1572 1573 1574 1575 1576 1577 1578 1579 1580 1580 1581 1581 1581 1582 1582 1582 1582 1582 1582 1583 1583 1583 1584 1584 1584 1584 1584 1585 1585 1585 1585 1585 1585 1585 1585 1585 1585 1586 1586 1586 1586 1586 1586 1586 1586 1586 1586 1586 1586 1585 1585 1585 1585 1586 1586 1586 1587 1587 1587 1588 1588 1588 1588 1588 1589 1589 1589 1589 1589 1589
1551 1553 1555 1556 1558 1559 1561 1563 1564 1565 1566 1568 1569 1571 1572 1573 1574 1575 1576 1577 1578 1579 1580 1581 1581 1582 1582 1582 1583 1583 1583 1583 1583 1583 1583 1584 1584 1584 1585 1585 1585 1585 1585 1586 1586 1586 1586 1586 1586 1586 1586 1586 1586 1586 1586 1587 1587 1587 1587 1587 1587 1587 1587 1587 1587 1586 1586 1586 1587 1587 1588 1588 1588 1588 1588 1589 1589 1589 1590 1590 1590 1590 1590 1590 1591
1552 1553 1555 1557 1559 1560 1562 1563 1565 1566 1568 1569 1570 1571 1572 1574 1575 1576 1577 1578 1579 1580 1581 1581 1582 1582 1583 1583 1583 1583 1584 1584 1584 1584 1584 1585 1585 1585 1585 1586 1586 1586 1586 1587 1587 1587 1587 1587 1587 1587 1587 1587 1587 1587 1587 1587 1588 1588 1588 1588 1588 1588 1588 1588 1588 1588 1587 1588 1588 1588 1588 1589 1589 1589 1589 1590 1590 1590 1591 1591 1591 1591 1591 1592 1592
1553 1554 1556 1558 1560 1561 1563 1564 1566 1567 1569 1570 1571 1572 1573 1575 1576 1577 1578 1579 1580 1581 1582 1582 1583 1583 1584 1584 1584 1584 1584 1585 1585 1585 1585 1585 1586 1586 1586 1587 1587 1587 1587 1587 1587 1587 1587 1588 1588 1588 1588 1588 1588 1588 1588 1589 1589 1589 1589 1589 1589 1589 1589 1589 1589 1589 1589 1589 1589 1589 1589 1589 1590 1590 1590 1591 1591 1591 1592 1592 1592 1592 1592 1593 1593
1554 1555 1557 1559 1561 1562 1564 1565 1567 1568 1570 1571 1572 1573 1574 1576 1577 1578 1579 1580 1581 1582 1582 1583 1584 1584 1584 1585 1585 1585 1585 1586 1586 1586 1586 1586 1587 1587 1587 1587 1588 1588 1588 1588 1588 1588 1588 1588 1589 1589 1589 1589 1589 1590 1590 1590 1590 1590 1590 1590 1590 1590 1590 1590 1590 1590 1590 1590 1590 1590 1590 1590 1591 1591 1591 1591 1591 1592 1593 1593 1593 1593 1593 1594 1594
1555 1557 1558 1560 1562 1563 1565 1566 1567 1569 1570 1571 1573 1574 1575 1577 1578 1579 1580 1581 1582 1583 1583 1584 1584 1585 1585 1585 1586 1586 1586 1586 1587 1587 1587 1587 1588 1588 1588 1588 1588 1588 1589 1589 1589 1589 1589 1589 1589 1590 1590 1590 1590 1591 1591 1591 1591 1591 1591 1591 1591 1591 1591 1591 1591 1591 1591 1591 1591 1591 1592 1591 1592 1592 1592 1592 1592 1593 1593 1594 1594 1594 1595 1595 1595
1556 1557 1559 1561 1562 1564 1565 1567 1568 1570 1571 1572 1574 1575 1576 1577 1579 1580 1581 1582 1583 1583 1584 1585 1585 1585 1586 1586 1586 1587 1587 1587 1588 1588 1588 1588 1588 1589 1589 1589 1589 1589 1589 1589 1589 1589 1590 1590 1590 1590 1591 1591 1591 1591 1591 1592 1592 1592 1592 1592 1592 1592 1592 1592 1592 1592 1592 1592 1592 1592 1593 1592 1593 1593 1593 1593 1593 1594 1594 1594 1595 1595 1595 1596 1595
1556 1558 1560 1561 1563 1565 1566 1567 1569 1570 1572 1573 1574 1576 1577 1578 1580 1581 1582 1582 1583 1584 1585 1585 1586 1586 1586 1587 1587 1588 1588 1588 1588 1589 1589 1589 1589 1589 1589 1590 1590 1590 1590 1590 1590 1590 1590 1590 1591 1591 1591 1591 1592 1592 1592 1592 1592 1592 1592 1592 1592 1592 1592 1593 1593 1593 1593 1593 1593 1593 1593 1593 1593 1594 1594 1594 1594 1595 1595 1595 1596 1596 1596 1596 1597
1556 1558 1560 1561 1564 1565 1567 1568 1569 1571 1573 1574 1575 1576 1578 1579 1580 1581 1582 1583 1584 1584 1585 1586 1586 1587 1587 1588 1588 1589 1589 1589 1589 1589 1590 1590 1590 1590 1590 1590 1590 1590 1590 1590 1590 1591 1591 1591 1591 1591 1592 1592 1592 1592 1592 1593 1592 1593 1593 1593 1593 1593 1593 1593 1593 1594 1594 1594 1594 1594 1594 1594 1594 1594 1595 1595 1595 1596 1596 1596 1596 1597 1597 1597 1597
1556 1558 1560 1562 1564 1566 1567 1569 1570 1572 1573 1575 1576 1577 1578 1580 1581 1582 1583 1583 1584 1585 1586 1586 1587 1587 1588 1589 1589 1589 1590 1590 1590 1590 1590 1590 1590 1590 1590 1591 1591 1591 1591 1591 1591 1591 1591 1592 1592 1592 1593 1593 1593 1593 1593 1593 1593 1593 1593 1593 1593 1593 1593 1594 1594 1594 1594 1594 1594 1594 1595 1595 1595 1595 1596 1595 1596 1596 1597 1597 1597 1597 1598 1598 1598
1557 1558 1560 1562 1564 1566 1568 1569 1571 1572 1574 1575 1576 1577 1579 1580 1581 1582 1583 1584 1585 1585 1586 1587 1587 1588 1589 1589 1590 1590 1591 1591 1591 1591 1591 1591 1591 1591 1591 1592 1592 1592 1592 1592 1592 1592 1592 1593 1593 1593 1593 1594 1594 1594 1593 1593 1593 1594 1594 1594 1594 1594 1594 1594 1594 1594 1594 1595 1595 1595 1595 1595 1595 1595 1596 1596 1597 1597 1597 1598 1598 1598 1598 1599 1599
1557 1559 1560 1562 1564 1566 1568 1570 1571 1573 1574 1576 1577 1578 1579 1580 1582 1583 1584 1584 1585 1586 1586 1587 1588 1588 1589 1590 1590 1591 1591 1591 1591 1591 1591 1592 1592 1592 1592 1592 1592 1593 1592 1592 1593 1593 1593 1594 1594 1594 1594 1594 1594 1594 1594 1594 1594 1594 1594 1594 1594 1594 1594 1594 1594 1595 1594 1595 1595 1595 1595 1595 1595 1596 1596 1596 1597 1597 1598 1598 1598 1599 1599 1599 1600
1557 1559 1561 1562 1564 1566 1568 1569 1571 1573 1574 1576 1577 1578 1579 1581 1582 1583 1584 1585 1585 1586 1587 1587 1588 1589 1590 1590 1591 1591 1592 1592 1592 1592 1592 1592 1592 1592 1592 1593 1593 1593 1593 1593 1594 1594 1594 1595 1595 1595 1595 1595 1595 1595 1595 1595 1595 1594 1594 1595 1595 1595 1595 1595 1595 1595 1595 1595 1595 1595 1595 1596 1596 1596 1596 1597 1597 1598 1598 1599 1599 1599 1600 1600 1600
1557 1559 1561 1562 1564 1566 1567 1569 1571 1572 1574 1575 1577 1578 1580 1581 1582 1583 1584 1585 1586 1586 1587 1588 1588 1589 1590 1591 1592 1592 1592 1592 1592 1592 1592 1593 1593 1593 1593 1593 1594 1594 1594 1594 1595 1595 1595 1596 1596 1596 1596 1596 1595 1596 1596 1595 1595 1595 1595 1595 1595 1595 1595 1595 1595 1595 1595 1595 1595 1595 1595 1596 1596 1596 1597 1597 1598 1598 1599 1599 1600 1600 1601 1601 1601
1557 1559 1560 1562 1563 1565 1567 1569 1570 1572 1574 1575 1577 1578 1580 1581 1582 1583 1584 1585 1586 1586 1587 1588 1589 1590 1590 1591 1592 1592 1592 1593 1593 1593 1593 1593 1593 1594 1594 1594 1594 1595 1595 1595 1595 1596 1596 1596 1596 1596 1596 1596 1596 1596 1596 1596 1596 1595 1595 1595 1595 1595 1595 1595 1595 1595 1595 1595 1595 1595 1596 1596 1596 1597 1597 1597 1598 1599 1599 1600 1600 1601 1601 1602 1602
1557 1558 1560 1561 1563 1565 1566 1568 1570 1571 1573 1575 1576 1578 1579 1581 1582 1583 1584 1585 1586 1587 1588 1588 1589 1590 1591 1591 1592 1592 1593 1593 1593 1593 1594 1594 1594 1594 1594 1595 1595 1595 1595 1596 1596 1596 1596 1597 1597 1597 1597 1597 1596 1596 1596 1596 1596 1596 1596 1595 1595 1595 1595 1595 1595 1595 1595 1595 1595 1595 1596 1596 1596 1597 1597 1598 1598 1599 1599 1600 1600 1601 1601 1602 1602
1555 1557 1559 1561 1562 1564 1566 1568 1569 1571 1573 1574 1576 1578 1579 1580 1582 1583 1584 1585 1586 1587 1588 1589 1589 1590 1591 1591 1592 1592 1593 1593 1594 1594 1594 1594 1594 1595 1595 1595 1595 1595 1596 1596 1597 1597 1597 1597 1597 1597 1597 1597 1597 1597 1597 1596 1596 1596 1596 1596 1596 1596 1596 1595 1595 1595 1595 1596 1596 1596 1596 1596 1596 1597 1597 1597 1598 1599 1599 1600 1600 1601 1602 1602 1603
1553 1555 1557 1559 1561 1563 1565 1567 1569 1570 1572 1574 1575 1577 1579 1580 1581 1583 1584 1585 1586 1587 1588 1589 1589 1590 1591 1591 1592 1592 1593 1593 1594 1594 1594 1595 1595 1595 1595 1595 1596 1596 1596 1596 1597 1597 1597 1597 1597 1597 1597 1597 1597 1597 1597 1597 1596 1596 1596 1596 1596 1596 1596 1596 1595 1596 1596 1596 1596 1596 1596 1596 1596 1596 1597 1598 1598 1599 1600 1600 1601 1602 1602 1603 1603
1552 1554 1556 1558 1560 1563 1565 1566 1568 1570 1571 1573 1575 1576 1578 1580 1581 1582 1584 1585 1586 1587 1588 1589 1589 1590 1590 1591 1592 1592 1593 1593 1594 1594 1595 1595 1595 1595 1595 1596 1596 1596 1596 1597 1597 1597 1597 1598 1598 1597 1597 1597 1597 1597 1597 1597 1597 1597 1596 1596 1596 1596 1596 1596 1596 1596 1596 1596 1596 1596 1596 1596 1596 1597 1597 1598 1599 1599 1600 1601 1601 1602 1603 1603 1604
1551 1554 1555 1557 1559 1562 1564 1566 1568 1569 1571 1572 1574 1575 1577 1579 1580 1582 1583 1585 1586 1587 1588 1589 1589 1590 1590 1591 1592 1592 1593 1594 1594 1595 1595 1595 1596 1596 1596 1596 1596 1596 1597 1597 1597 1597 1597 1597 1598 1598 1598 1598 1598 1598 1597 1597 1597 1597 1597 1596 1596 1596 1596 1596 1596 1596 1596 1596 1596 1596 1597 1597 1597 1597 1598 1598 1599 1600 1600 1600 1601 1601 1602 1603 1603
1551 1552 1554 1556 1558 1561 1563 1565 1567 1568 1570 1571 1573 1575 1576 1578 1580 1581 1583 1584 1585 1586 1587 1588 1589 1589 1590 1591 1592 1592 1593 1594 1594 1595 1595 1596 1596 1596 1596 1596 1596 1596 1597 1597 1597 1597 1597 1597 1598 1598 1598 1598 1598 1598 1597 1597 1597 1597 1597 1597 1597 1596 1596 1596 1596 1596 1596 1596 1596 1596 1597 1597 1597 1597 1598 1598 1599 1600 1600 1600 1601 1601 1602 1602 1603
1549 1551 1553 1555 1557 1559 1562 1564 1565 1567 1569 1571 1572 1574 1575 1577 1579 1580 1582 1583 1584 1586 1587 1588 1588 1589 1590 1591 1591 1592 1593 1593 1594 1595 1595 1596 1596 1596 1596 1596 1596 1596 1597 1597 1597 1597 1597 1597 1597 1597 1597 1598 1598 1597 1597 1597 1597 1597 1597 1597 1597 1597 1596 1597 1597 1597 1597 1596 1596 1596 1597 1597 1597 1598 1598 1599 1599 1600 1600 1600 1601 1601 1602 1602 1603
1547 1550 1552 1553 1556 1558 1560 1562 1564 1566 1568 1570 1572 1573 1575 1577 1578 1580 1581 1582 1584 1585 1586 1587 1588 1589 1589 1590 1591 1592 1592 1593 1594 1594 1595 1595 1596 1596 1596 1596 1596 1597 1597 1597 1597 1597 1597 1597 1597 1597 1597 1597 1597 1597 1597 1597 1598 1597 1598 1598 1597 1597 1597 1597 1597 1597 1597 1597 1596 1596 1596 1597 1597 1598 1599 1599 1599 1599 1599 1600 1600 1601 1602 1602 1603
1546 1548 1550 1552 1554 1557 1559 1561 1563 1565 1567 1569 1571 1572 1574 1576 1577 1579 1580 1581 1583 1584 1585 1586 1587 1588 1589 1590 1591 1591 1592 1593 1594 1594 1595 1595 1595 1595 1596 1596 1596 1596 1597 1597 1597 1597 1597 1597 1597 1597 1597 1597 1597 1597 1597 1597 1598 1598 1598 1598 1598 1597 1597 1597 1597 1597 1597 1597 1596 1596 1596 1597 1597 1598 1599 1599 1599 1599 1599 1599 1600 1601 1601 1602 1603
1544 1547 1549 1551 1553 1556 1557 1559 1562 1564 1566 1568 1569 1571 1573 1575 1576 1578 1579 1580 1582 1583 1584 1585 1586 1587 1588 1589 1590 1591 1592 1593 1593 1594 1594 1594 1595 1595 1596 1596 1596 1596 1596 1596 1597 1597 1597 1597 1597 1597 1597 1597 1597 1597 1597 1597 1597 1598 1598 1598 1598 1598 1597 1597 1597 1597 1597 1596 1596 1596 1596 1596 1597 1598 1599 1599 1599 1599 1599 1599 1600 1601 1601 1602 1603
1543 1545 1547 1550 1552 1554 1556 1558 1561 1563 1565 1567 1568 1570 1572 1574 1575 1577 1578 1580 1581 1582 1584 1585 1586 1587 1588 1589 1590 1591 1591 1592 1593 1593 1594 1594 1595 1595 1595 1596 1596 1596 1596 1596 1596 1596 1596 1596 1597 1597 1597 1597 1597 1597 1597 1597 1597 1597 1598 1598 1598 1598 1597 1597 1597 1598 1597 1596 1596 1596 1596 1596 1597 1598 1599 1599 1599 1599 1599 1599 1600 1601 1602 1603 1603
1541 1543 1546 1548 1551 1553 1555 1557 1559 1561 1563 1566 1567 1569 1571 1573 1574 1576 1577 1579 1581 1582 1583 1584 1585 1586 1587 1588 1589 1590 1591 1591 1592 1593 1593 1594 1594 1595 1595 1596 1596 1596 1596 1596 1596 1596 1596 1596 1596 1597 1597 1597 1597 1597 1597 1596 1597 1597 1598 1598 1598 1597 1597 1598 1598 1598 1597 1597 1596 1596 1596 1596 1597 1597 1598 1598 1598 1599 1599 1599 1599 1600 1601 1602 1603
1539 1542 1545 1547 1549 1552 1554 1556 1558 1560 1562 1565 1567 1568 1570 1572 1574 1575 1577 1578 1580 1581 1582 1583 1584 1585 1586 1587 1588 1589 1590 1591 1592 1592 1593 1594 1594 1595 1595 1595 1595 1595 1596 1596 1596 1596 1596 1596 1596 1596 1596 1597 1596 1596 1596 1596 1596 1596 1597 1597 1597 1597 1597 1598 1598 1598 1597 1597 1597 1597 1596 1596 1597 1597 1598 1598 1598 1598 1599 1599 1599 1600 1601 1602 1603
1538 1541 1543 1545 1548 1550 1553 1555 1557 1559 1561 1563 1565 1567 1569 1571 1573 1574 1576 1577 1579 1580 1581 1583 1584 1584 1586 1586 1587 1588 1589 1590 1591 1592 1593 1593 1594 1594 1595 1595 1595 1595 1595 1595 1596 1596 1596 1596 1596 1596 1596 1596 1596 1596 1595 1595 1595 1596 1596 1597 1597 1597 1597 1598 1598 1597 1597 1596 1596 1597 1597 1597 1597 1597 1598 1598 1599 1599 1598 1599 1599 1600 1601 1601 1602
1536 1539 1541 1544 1547 1549 1551 1553 1555 1558 1560 1562 1564 1566 1568 1570 1572 1573 1575 1576 1577 1579 1580 1582 1583 1583 1585 1585 1586 1587 1588 1589 1590 1591 1592 1593 1593 1594 1594 1595 1595 1595 1595 1595 1595 1596 1596 1596 1596 1596 1596 1596 1596 1595 1595 1595 1595 1596 1596 1596 1597 1597 1597 1598 1598 1597 1597 1597 1596 1597 1597 1597 1597 1597 1598 1598 1598 1599 1598 1598 1599 1600 1600 1600 1601
1535 1537 1540 1543 1545 1547 1550 1552 1554 1556 1558 1561 1563 1565 1567 1569 1570 1572 1573 1575 1576 1577 1579 1580 1581 1582 1583 1584 1585 1586 1587 1588 1589 1590 1591 1592 1593 1593 1594 1594 1594 1594 1594 1595 1595 1595 1596 1595 1595 1595 1595 1595 1595 1595 1595 1595 1595 1595 1595 1596 1596 1597 1597 1598 1598 1597 1597 1597 1597 1597 1597 1597 1597 1597 1597 1597 1597 1598 1598 1598 1598 1599 1599 1600 1600
1533 1536 1539 1541 1543 1546 1549 1551 1553 1555 1557 1559 1562 1564 1565 1567 1569 1571 1572 1573 1575 1576 1578 1579 1580 1581 1582 1583 1584 1585 1586 1587 1588 1589 1590 1591 1592 1593 1593 1593 1593 1593 1594 1594 1594 1595 1595 1595 1595 1595 1594 1594 1594 1594 1594 1594 1594 1595 1595 1595 1596 1597 1597 1598 1598 1598 1597 1597 1597 1597 1597 1596 1596 1597 1597 1596 1596 1596 1597 1597 1597 1598 1598 1599 1599
1532 1535 1537 1540 1542 1545 1547 1550 1552 1554 1556 1558 1560 1562 1564 1566 1568 1569 1570 1572 1573 1575 1576 1577 1578 1580 1581 1582 1583 1584 1585 1586 1587 1588 1589 1590 1591 1592 1592 1592 1592 1593 1593 1593 1594 1594 1594 1594 1594 1594 1594 1593 1593 1594 1594 1594 1594 1594 1595 1595 1596 1597 1597 1598 1598 1598 1597 1597 1597 1597 1596 1596 1596 1596 1596 1596 1596 1595 1596 1596 1596 1597 1597 1598 1598
1531 1533 1536 1539 1541 1544 1546 1548 1551 1553 1555 1557 1559 1561 1563 1565 1566 1567 1569 1570 1571 1573 1574 1576 1577 1578 1579 1581 1582 1583 1584 1585 1586 1587 1588 1589 1590 1591 1591 1591 1591 1592 1592 1592 1593 1593 1593 1594 1593 1593 1593 1593 1593 1593 1593 1593 1594 1594 1594 1595 1596 1597 1597 1598 1598 1597 1597 1597 1596 1596 1596 1596 1596 1595 1595 1595 1595 1595 1595 1595 1595 1596 1596 1597 1597
1529 1531 1534 1536 1539 1541 1544 1546 1548 1551 1553 1555 1557 1559 1561 1562 1564 1565 1566 1568 1569 1571 1572 1574 1575 1577 1578 1579 1581 1582 1583 1584 1585 1586 1587 1588 1589 1589 1590 1590 1590 1590 1591 1591 1591 1592 1592 1592 1593 1592 1592 1592 1592 1592 1593 1593 1593 1594 1594 1595 1596 1597 1597 1597 1597 1597 1597 1596 1596 1596 1596 1596 1596 1596 1596 1596 1595 1595 1595 1595 1595 1595 1595 1595 1596
1527 1529 1531 1534 1536 1539 1541 1543 1546 1548 1550 1552 1554 1556 1557 1559 1561 1562 1564 1566 1567 1569 1571 1572 1574 1575 1577 1578 1579 1580 1582 1583 1584 1585 1586 1587 1587 1588 1588 1589 1589 1589 1590 1590 1590 1591 1591 1591 1591 1592 1592 1592 1592 1592 1592 1592 1593 1593 1594 1595 1596 1596 1597 1597 1597 1597 1596 1596 1596 1596 1597 1597 1597 1597 1596 1596 1596 1596 1596 1596 1595 1595 1595 1595 1595
1524 1526 1528 1531 1534 1536 1539 1541 1543 1546 1547 1549 1551 1553 1555 1557 1558 1560 1562 1564 1566 1568 1569 1571 1572 1574 1575 1576 1578 1579 1580 1581 1582 1583 1584 1585 1586 1587 1587 1588 1588 1588 1588 1589 1589 1589 1590 1590 1591 1591 1591 1591 1591 1591 1591 1592 1593 1593 1594 1595 1595 1596 1596 1596 1596 1596 1596 1596 1596 1597 1597 1597 1597 1597 1597 1597 1596 1596 1596 1596 1596 1595 1595 1595 1595
1521 1524 1526 1529 1531 1533 1536 1538 1540 1543 1545 1547 1549 1551 1553 1555 1557 1559 1562 1563 1565 1567 1568 1570 1571 1573 1574 1575 1576 1577 1579 1580 1581 1582 1583 1584 1585 1585 1586 1587 1587 1587 1587 1588 1588 1588 1589 1589 1590 1590 1590 1591 1591 1591 1591 1592 1592 1593 1593 1594 1595 1595 1595 1596 1596 1597 1597 1596 1597 1597 1597 1598 1598 1598 1598 1597 1597 1597 1596 1596 1596 1595 1595 1595 1595
1519 1521 1523 1525 1527 1530 1532 1535 1537 1539 1542 1544 1546 1549 1551 1554 1556 1559 1561 1563 1564 1566 1567 1568 1569 1571 1572 1573 1574 1576 1577 1578 1580 1581 1581 1582 1583 1584 1585 1585 1586 1586 1586 1587 1587 1587 1588 1588 1589 1589 1590 1590 1590 1590 1590 1591 1591 1592 1593 1593 1594 1595 1595 1596 1596 1596 1597 1597 1597 1597 1597 1598 1598 1598 1598 1598 1598 1597 1597 1596 1596 1595 1595 1595 1595
1515 1516 1519 1521 1523 1526 1528 1531 1534 1536 1538 1541 1544 1547 1549 1552 1554 1557 1559 1560 1562 1563 1564 1565 1567 1568 1570 1571 1572 1574 1575 1577 1578 1579 1580 1581 1582 1583 1584 1584 1584 1585 1585 1586 1586 1586 1587 1587 1588 1588 1589 1589 1590 1590 1590 1590 1590 1591 1592 1592 1593 1594 1594 1595 1596 1596 1596 1597 1597 1597 1598 1598 1598 1599 1599 1598 1598 1598 1597 1597 1596 1596 1595 1595 1595
1511 1513 1516 1518 1521 1523 1526 1529 1531 1533 1536 1538 1541 1544 1547 1549 1551 1553 1555 1556 1557 1559 1560 1562 1564 1566 1568 1569 1571 1572 1574 1575 1576 1577 1578 1579 1580 1581 1582 1583 1583 1583 1584 1584 1585 1585 1586 1586 1587 1587 1588 1588 1589 1589 1589 1589 1589 1590 1591 1591 1592 1593 1594 1594 1595 1596 1596 1596 1596 1597 1597 1598 1598 1598 1599 1598 1598 1598 1598 1597 1597 1596 1596 1595 1595
1507 1511 1513 1516 1518 1521 1523 1526 1528 1530 1533 1535 1538 1541 1544 1546 1548 1550 1552 1553 1554 1556 1558 1560 1562 1564 1567 1568 1570 1571 1572 1574 1575 1576 1577 1578 1579 1580 1580 1581 1581 1582 1582 1583 1584 1584 1585 1585 1586 1586 1586 1587 1587 1588 1588 1588 1589 1589 1590 1591 1592 1592 1593 1594 1595 1595 1595 1596 1596 1596 1597 1597 1597 1598 1598 1598 1598 1598 1598 1598 1597 1597 1596 1596 1596
1505 1508 1511 1513 1515 1517 1520 1523 1525 1528 1530 1532 1535 1538 1541 1543 1545 1547 1549 1550 1552 1554 1556 1559 1560 1563 1565 1566 1568 1569 1570 1572 1573 1574 1575 1576 1577 1578 1578 1579 1580 1580 1581 1582 1582 1583 1583 1584 1584 1585 1585 1585 1586 1586 1587 1587 1588 1589 1589 1590 1591 1592 1592 1593 1594 1594 1595 1595 1595 1596 1596 1596 1597 1597 1597 1597 1598 1598 1598 1598 1597 1597 1597 1596 1596
1502 1505 1507 1509 1512 1514 1517 1520 1522 1525 1527 1529 1532 1535 1537 1540 1542 1544 1546 1547 1550 1552 1554 1556 1558 1560 1562 1564 1565 1567 1568 1570 1571 1572 1573 1574 1575 1576 1576 1577 1578 1579 1580 1580 1581 1581 1582 1582 1583 1583 1584 1584 1584 1585 1586 1586 1587 1588 1588 1589 1590 1591 1592 1592 1593 1593 1594 1595 1595 1595 1595 1596 1596 1596 1596 1597 1597 1597 1597 1597 1597 1597 1597 1597 1596
1499 1502 1504 1507 1509 1512 1514 1516 1519 1521 1524 1526 1529 1531 1534 1536 1539 1541 1542 1545 1547 1549 1552 1553 1555 1557 1559 1561 1562 1564 1566 1567 1569 1570 1571 1572 1573 1574 1574 1575 1576 1577 1578 1579 1580 1580 1580 1581 1582 1582 1582 1583 1583 1584 1584 1585 1586 1587 1588 1588 1589 1590 1591 1592 1592 1593 1593 1593 1594 1594 1594 1595 1595 1596 1596 1596 1596 1596 1597 1597 1597 1597 1597 1597 1597
1496 1499 1501 1503 1506 1508 1511 1513 1515 1518 1521 1523 1526 1528 1531 1533 1535 1537 1539 1542 1544 1546 1548 1550 1551 1553 1555 1557 1559 1562 1563 1565 1566 1567 1568 1569 1570 1571 1572 1573 1574 1575 1576 1577 1578 1579 1579 1580 1580 1581 1581 1582 1582 1582 1583 1584 1584 1586 1587 1588 1588 1589 1590 1591 1591 1592 1592 1593 1593 1593 1594 1594 1594 1595 1595 1595 1595 1596 1596 1596 1596 1596 1596 1597 1596